Overview Statistics Trail Chart Weather Telemetry Raw packets
 

This is the latest recevied weather packets stored in our database for station/object VE8SKI. If no packets are shown the sender has not sent any weather packets the latest 10 day(s).

<< 41 42 43 44 45 46 47 >>
Time Temp. Humidity Pressure Rain* Wind** Luminosity Snow
1777828943 -1.67° C 79% 1016.7 hPa 0 mm 1.79 m/s, 73° - -
1777828644 -2.22° C 79% 1016.6 hPa 0 mm 2.24 m/s, 25° - -
1777828344 -2.22° C 79% 1016.7 hPa 0 mm 2.24 m/s, 42° - -
1777828044 -1.67° C 80% 1016.6 hPa 0 mm 2.68 m/s, 77° - -
1777827745 -2.22° C 79% 1016.6 hPa 0 mm 2.24 m/s, 37° - -
1777827445 -2.22° C 79% 1016.6 hPa 0 mm 2.24 m/s, 55° - -
1777827142 -2.22° C 79% 1016.4 hPa 0 mm 3.13 m/s, 66° - -
1777826843 -2.22° C 79% 1016.4 hPa 0 mm 2.24 m/s, 104° - -
1777826543 -2.22° C 79% 1016.4 hPa 0 mm 2.68 m/s, 39° - -
1777826243 -2.22° C 79% 1016.4 hPa 0 mm 2.68 m/s, 21° - -
1777825944 -2.22° C 80% 1016.4 hPa 0 mm 2.24 m/s, 42° - -
1777825644 -2.22° C 80% 1016.3 hPa 0 mm 2.68 m/s, 53° - -
1777825342 -2.22° C 80% 1016.3 hPa 0 mm 2.68 m/s, 58° - -
1777825042 -2.78° C 81% 1016.2 hPa 0 mm 2.24 m/s, 45° - -
1777824742 -2.78° C 80% 1016.2 hPa 0 mm 2.68 m/s, 11° - -
1777824443 -2.22° C 81% 1016.1 hPa 0 mm 1.79 m/s, 65° - -
1777824143 -2.78° C 81% 1016.1 hPa 0 mm 3.58 m/s, 38° - -
1777823843 -2.78° C 81% 1016.1 hPa 0 mm 2.24 m/s, 52° - -
1777823541 -2.22° C 81% 1016 hPa 0 mm 2.24 m/s, 68° - -
1777823241 -2.78° C 81% 1016.1 hPa 0 mm 2.68 m/s, 59° - -
1777822642 -2.78° C 82% 1016 hPa 0 mm 2.24 m/s, 65° - -
1777822342 -2.78° C 82% 1016 hPa 0 mm 2.24 m/s, 58° - -
1777822042 -2.78° C 82% 1016 hPa 0 mm 3.13 m/s, 25° - -
1777821740 -2.78° C 82% 1015.9 hPa 0 mm 2.68 m/s, 42° - -
1777821440 -2.78° C 82% 1016 hPa 0 mm 2.24 m/s, 39° - -

* Rain latest hour (hover to see other rain measurements)
** Current wind speed in m/s (hover to see current wind gust speed)